Weather History for Abilene Dyess, TX

Change the Weather History Date:

Sunday, February 3, 2013

  Actual Average Record
Temperature  
Mean Temperature 47 °F -  
Max Temperature 67 °F 56 °F 78 °F (2000)
Min Temperature 27 °F 35 °F 10 °F (2011)
Degree Days  
Heating Degree Days 18    
Moisture  
Dew Point 31 °F    
Average Humidity 51    
Maximum Humidity 77    
Minimum Humidity 17    
Precipitation  
Precipitation 0.00 in - - ()
Sea Level Pressure  
Sea Level Pressure 30.16 in    
Wind  
Wind Speed 8 mph (South)    
Max Wind Speed 20 mph    
Max Gust Speed 26 mph    
Visibility 10 miles    
Events      
Averages and records for this station are not official NWS values.
T = Trace of Precipitation, MM = Missing Value Source: NWS Daily Summary

Daily Weather History Graph

Daily Weather History Graph

Search for Another Location

Airport:

Trip Planner

Search our weather history database for the weather conditions in past years. The results will help you decide how hot, cold, wet, or windy it might be!

Date:

Astronomy

Feb. 03, 2013 Rise Set
Actual Time 7:32 AM CST 6:14 PM CST
Civil Twilight 7:06 AM CST 6:40 PM CST
Nautical Twilight 6:37 AM CST 7:09 PM CST
Astronomical Twilight 6:08 AM CST 7:38 PM CST
Moon 1:00 AM CST (2/3) 11:55 AM CST (2/3)
Length of Visible Light 11h 34m
Length of Day
10h 42m
Waning Gibbous, 48% of the Moon is Illuminated
Feb 3
Waning Gibbous
Feb 10
New
Feb 17
First Quarter
Feb 25
Full
Mar 4
Last Quarter

Hourly Weather History & Observations

Time (CST) Temp. Windchill Dew Point Humidity Pressure Visibility Wind Dir Wind Speed Gust Speed Precip Events Conditions
12:55 AM 31.5 °F 26.8 °F 21.7 °F 67% 30.35 in 10.0 mi SW 4.6 mph - N/A   Clear
1:55 AM 32.4 °F 29.1 °F 22.8 °F 68% 30.34 in 10.0 mi SSW 3.5 mph - N/A   Clear
2:55 AM 29.7 °F 24.7 °F 22.5 °F 75% 30.33 in 10.0 mi SSW 4.6 mph - N/A   Clear
3:55 AM 30.9 °F 26.2 °F 23.5 °F 74% 30.31 in 10.0 mi SSW 4.6 mph - N/A   Clear
4:55 AM 29.7 °F 26.1 °F 22.8 °F 76% 30.30 in 10.0 mi SSW 3.5 mph - N/A   Clear
5:55 AM 27.9 °F 21.5 °F 20.8 °F 75% 30.30 in 10.0 mi SSW 5.8 mph - N/A   Clear
6:55 AM 28.9 °F 23.9 °F 22.6 °F 77% 30.31 in 10.0 mi South 4.6 mph - N/A   Clear
7:55 AM 32.4 °F - 25.0 °F 74% 30.32 in 10.0 mi Calm Calm - N/A   Clear
8:55 AM 41.0 °F - 29.5 °F 64% 30.32 in 10.0 mi Calm Calm - N/A   Clear
9:55 AM 56.3 °F - 30.6 °F 38% 30.29 in 10.0 mi South 12.7 mph - N/A   Clear
10:55 AM 60.8 °F - 25.2 °F 26% 30.28 in 10.0 mi South 17.3 mph - N/A   Clear
11:55 AM 63.1 °F - 22.6 °F 21% 30.24 in 10.0 mi SSE 18.4 mph 25.3 mph N/A   Clear
12:55 PM 65.1 °F - 19.6 °F 17% 30.20 in 10.0 mi SSE 19.6 mph 25.3 mph N/A   Clear
1:55 PM 66.7 °F - 21.2 °F 18% 30.13 in 10.0 mi South 17.3 mph - N/A   Partly Cloudy
2:55 PM 67.1 °F - 32.4 °F 28% 30.09 in 10.0 mi South 17.3 mph - N/A   Partly Cloudy
3:55 PM 67.3 °F - 36.9 °F 33% 30.05 in 10.0 mi South 16.1 mph 26.5 mph N/A   Mostly Cloudy
4:55 PM 64.8 °F - 37.0 °F 36% 30.03 in 10.0 mi SSE 16.1 mph 21.9 mph N/A   Mostly Cloudy
5:55 PM 63.3 °F - 39.0 °F 41% 30.02 in 10.0 mi SSE 10.4 mph - N/A   Overcast
6:55 PM 61.2 °F - 37.6 °F 42% 30.00 in 10.0 mi SSE 10.4 mph - N/A   Mostly Cloudy
7:55 PM 59.2 °F - 39.2 °F 48% 29.97 in 10.0 mi South 11.5 mph - N/A   Mostly Cloudy
8:55 PM 60.6 °F - 42.1 °F 50% 29.93 in 10.0 mi South 17.3 mph - N/A   Mostly Cloudy
9:55 PM 61.7 °F - 45.0 °F 54% 29.91 in 10.0 mi South 15.0 mph 21.9 mph N/A   Overcast
10:55 PM 60.6 °F - 46.0 °F 59% 29.91 in 10.0 mi South 11.5 mph - N/A   Overcast
11:55 PM 60.1 °F - 46.4 °F 61% 29.88 in 10.0 mi South 13.8 mph - N/A   Overcast